CW3319 Weather Reports


Display with metric or nautical units.
time (UTC)temp
F
wind
direction
speed
MPH
gust
MPH
rain 1hr
in
rain 24hr
in
rain mn
in
humidity
%
barometer
mb
20260503180903 71 312 3.0 5.0 0.00 0.00 0.00 38 1004.1
20260503175931 70 329 3.0 5.0 0.00 0.00 0.00 37 1004.1
20260503174902 70 345 3.0 5.0 0.00 0.00 0.00 41 1004.1
20260503173902 70 279 2.0 3.0 0.00 0.00 0.00 38 1004.3
20260503172902 70 15 2.0 4.0 0.00 0.00 0.00 40 1004.3
20260503171902 69 306 3.0 11.0 0.00 0.00 0.00 42 1004.4
20260503170902 68 12 3.0 5.0 0.00 0.00 0.00 43 1004.5
20260503150901 62 312 4.0 9.0 0.00 0.00 0.00 51 1004.2
20260503130933 55 258 0.0 0.0 0.00 0.00 0.00 58 1003.5
20260503081002 55 179 2.0 4.0 0.00 0.00 0.00 58 1003.9
20260503072902 57 211 2.0 7.0 0.00 0.00 0.00 56 1004.4
20260503071902 57 176 0.0 1.0 0.00 0.00 0.00 55 1004.6
20260503070902 58 227 2.0 4.0 0.00 0.00 0.00 56 1004.7
20260503054902 57 227 2.0 3.0 0.00 0.00 0.00 51 1006.3
20260503053901 57 240 1.0 2.0 0.00 0.00 0.00 51 1006.3
20260503052957 57 227 2.0 3.0 0.00 0.00 0.00 51 1006.4
20260503051902 58 224 2.0 4.0 0.00 0.00 0.00 50 1006.5
20260503050902 58 207 2.0 4.0 0.00 0.00 0.00 51 1006.5
20260503045902 58 210 1.0 2.0 0.00 0.00 0.00 50 1006.6
20260503044903 58 197 3.0 7.0 0.00 0.00 0.00 50 1006.6
20260503043931 59 216 3.0 5.0 0.00 0.00 0.00 49 1006.8
20260503042933 59 212 1.0 3.0 0.00 0.00 0.00 49 1007.0
20260503041901 59 187 2.0 6.0 0.00 0.00 0.00 48 1007.2
20260503040902 60 220 1.0 2.0 0.00 0.00 0.00 47 1007.4
20260503035901 60 213 0.0 2.0 0.00 0.00 0.00 47 1007.6
20260503034903 60 193 1.0 1.0 0.00 0.00 0.00 46 1007.7
20260503033902 61 229 1.0 2.0 0.00 0.00 0.00 46 1007.8
20260503032901 61 241 2.0 3.0 0.00 0.00 0.00 44 1008.0
20260503031903 61 252 2.0 3.0 0.00 0.00 0.00 46 1008.3
20260503030902 61 232 0.0 0.0 0.00 0.00 0.00 45 1008.5
20260503025931 61 242 1.0 2.0 0.00 0.00 0.00 46 1008.6
20260503025002 62 261 1.0 2.0 0.00 0.00 0.00 45 1008.8
20260503023903 62 244 1.0 3.0 0.00 0.00 0.00 45 1009.1
20260503023002 62 255 3.0 5.0 0.00 0.00 0.00 44 1009.1
20260503021902 62 233 2.0 3.0 0.00 0.00 0.00 43 1009.2
20260503020902 62 265 1.0 2.0 0.00 0.00 0.00 44 1009.1
20260503015907 62 280 2.0 3.0 0.00 0.00 0.00 43 1009.0
20260503014902 62 254 3.0 4.0 0.00 0.00 0.00 43 1009.0
20260503013932 62 257 3.0 7.0 0.00 0.00 0.00 43 1009.1
20260503012902 62 230 2.0 3.0 0.00 0.00 0.00 44 1009.0
20260503011902 62 257 3.0 4.0 0.00 0.00 0.00 42 1009.1
20260503010902 62 234 2.0 3.0 0.00 0.00 0.00 43 1009.2
20260503005902 62 263 2.0 2.0 0.00 0.00 0.00 46 1009.2
20260503004902 63 258 1.0 3.0 0.00 0.00 0.00 45 1009.4
20260503003902 63 262 2.0 4.0 0.00 0.00 0.00 42 1009.4
20260503002932 63 262 5.0 8.0 0.00 0.00 0.00 42 1009.5
20260503001902 63 277 7.0 9.0 0.00 0.00 0.00 44 1009.6
20260503000932 63 260 3.0 4.0 0.00 0.00 0.00 40 1009.4
20260502235902 63 238 3.0 5.0 0.00 0.00 0.00 41 1009.3
20260502234902 64 176 1.0 3.0 0.00 0.00 0.00 40 1009.5
20260502233902 64 237 0.0 0.0 0.00 0.00 0.00 40 1009.7
20260502232902 64 227 0.0 1.0 0.00 0.00 0.00 40 1009.7
20260502231902 64 213 1.0 2.0 0.00 0.00 0.00 38 1009.8
20260502230902 64 223 2.0 3.0 0.00 0.00 0.00 38 1009.9
20260502225902 64 259 1.0 2.0 0.00 0.00 0.00 40 1010.0
20260502224932 64 263 2.0 3.0 0.00 0.00 0.00 40 1010.2
20260502223902 64 271 2.0 2.0 0.00 0.00 0.00 39 1010.2
20260502222902 64 264 3.0 5.0 0.00 0.00 0.00 36 1010.2
20260502221902 64 255 1.0 2.0 0.00 0.00 0.00 38 1010.4
20260502220902 64 255 3.0 3.0 0.00 0.00 0.00 38 1010.5
20260502215902 64 268 2.0 3.0 0.00 0.00 0.00 37 1010.6
20260502214902 64 258 1.0 2.0 0.00 0.00 0.00 36 1010.7
20260502213902 64 236 3.0 4.0 0.00 0.00 0.00 37 1010.9
20260502212902 64 290 2.0 3.0 0.00 0.00 0.00 36 1011.0
20260502211902 65 263 2.0 3.0 0.00 0.00 0.00 36 1011.2
20260502210902 65 263 4.0 8.0 0.00 0.00 0.00 35 1011.5
20260502205902 65 261 3.0 4.0 0.00 0.00 0.00 37 1011.7
20260502204932 64 247 2.0 3.0 0.00 0.00 0.00 36 1011.8
20260502203902 64 236 2.0 4.0 0.00 0.00 0.00 36 1012.0
20260502202902 64 252 4.0 7.0 0.00 0.00 0.00 35 1012.3
20260502201902 64 252 2.0 3.0 0.00 0.00 0.00 34 1012.6
20260502200902 64 280 2.0 2.0 0.00 0.00 0.00 36 1012.7
20260502195902 64 274 4.0 6.0 0.00 0.00 0.00 36 1012.8
20260502195002 63 259 5.0 8.0 0.00 0.00 0.00 39 1013.1
20260502193902 63 246 3.0 4.0 0.00 0.00 0.00 37 1013.3
20260502192902 62 262 3.0 4.0 0.00 0.00 0.00 39 1013.5
20260502191933 62 260 3.0 4.0 0.00 0.00 0.00 35 1013.7
20260502190901 62 265 2.0 3.0 0.00 0.00 0.00 37 1013.8
20260502185902 62 284 5.0 8.0 0.00 0.00 0.00 38 1014.0
20260502184902 61 230 4.0 5.0 0.00 0.00 0.00 38 1014.2
20260502183902 61 257 3.0 3.0 0.00 0.00 0.00 36 1014.5
20260502182902 61 267 4.0 6.0 0.00 0.00 0.00 39 1014.6
20260502181902 60 238 2.0 4.0 0.00 0.00 0.00 38 1014.7